Location: Unspecified
(49.2170°N, 0.0000°E)
Time: 05:08:26
(UTC+00:00)

Vanguard 1 - Pass Details

Date: 25 January 2021
Orbit: 649 x 3834 km, 34.2° (Epoch: 08 March)

Event Time Altitude Azimuth Distance (km) Brightness Sun altitude
Rises 19:35:23 0° 280° (W) 7,970 16.0 -27.5°
Reaches altitude 10° 19:42:55 10° 268° (W) 6,905 15.3 -28.8°
Maximum altitude 19:57:11 22° 229° (SW) 5,393 14.1 -31.1°
Drops below altitude 10° 20:08:43 10° 187° (S) 5,440 13.8 -32.9°
Sets 20:13:42 0° 173° (S) 5,943 13.9 -33.7°
